Weather History for Gillette, WY

Change the Weather History Date:

Sunday, August 4, 2013

  Actual Average Record
Temperature  
Mean Temperature 73 °F 72 °F  
Max Temperature 86 °F 88 °F 104 °F (1947)
Min Temperature 59 °F 56 °F 38 °F (1980)
Degree Days  
Heating Degree Days 0 1  
Month to date heating degree days 0 1  
Since 1 June heating degree days 117 162  
Since 1 July heating degree days 0 20  
Cooling Degree Days 8 7  
Month to date cooling degree days 29 31  
Year to date cooling degree days 301 313  
Since 1 June cooling degree days 293 305  
Growing Degree Days 22 (Base 50)    
Moisture  
Dew Point 61 °F    
Average Humidity 68    
Maximum Humidity 100    
Minimum Humidity 35    
Precipitation  
Precipitation 0.01 in 0.04 in 0.81 in (1999)
Month to date precipitation 0.38 0.17  
Year to date precipitation 12.82 9.70  
Sea Level Pressure  
Sea Level Pressure 29.99 in    
Wind  
Wind Speed 6 mph (East)    
Max Wind Speed 21 mph    
Max Gust Speed 24 mph    
Visibility 10 miles    
Events Rain , Thunderstorm    
T = Trace of Precipitation, MM = Missing Value Source: NWS Daily Summary

Daily Weather History Graph

Daily Weather History Graph

Search for Another Location

Airport:

Trip Planner

Search our weather history database for the weather conditions in past years. The results will help you decide how hot, cold, wet, or windy it might be!

Date:

Astronomy

Aug. 04, 2013 Rise Set
Actual Time 5:53 AM MDT 8:22 PM MDT
Civil Twilight 5:20 AM MDT 8:55 PM MDT
Nautical Twilight 4:39 AM MDT 9:36 PM MDT
Astronomical Twilight 3:52 AM MDT 10:22 PM MDT
Moon 3:55 AM MDT (8/4) 6:47 PM MDT (8/4)
Length of Visible Light 15h 35m
Length of Day
14h 29m
Waning Crescent, 4% of the Moon is Illuminated
Aug 4
Waning Crescent
Aug 6
New
Aug 14
First Quarter
Aug 20
Full
Aug 28
Last Quarter

Hourly Weather History & Observations

Time (MDT) Temp. Heat Index Dew Point Humidity Pressure Visibility Wind Dir Wind Speed Gust Speed Precip Events Conditions
12:53 AM 66.0 °F - 62.1 °F 87% 29.94 in 10.0 mi ESE 10.4 mph - N/A   Partly Cloudy
1:07 AM 66.2 °F - 62.6 °F 88% 30.08 in 10.0 mi ESE 6.9 mph - N/A   Mostly Cloudy
1:53 AM 64.9 °F - 62.1 °F 90% 29.93 in 10.0 mi SSE 6.9 mph - N/A   Scattered Clouds
2:53 AM 64.0 °F - 61.0 °F 90% 29.93 in 10.0 mi Calm Calm - N/A   Clear
3:53 AM 59.0 °F - 57.9 °F 96% 29.95 in 7.0 mi North 3.5 mph - N/A   Clear
4:36 AM 62.6 °F - 60.8 °F 94% 30.08 in 7.0 mi Calm Calm - N/A   Overcast
4:53 AM 63.0 °F - 61.0 °F 93% 29.96 in 8.0 mi Calm Calm - N/A   Overcast
5:53 AM 63.0 °F - 62.1 °F 97% 29.96 in 9.0 mi Calm Calm - N/A   Overcast
6:53 AM 64.0 °F - 61.0 °F 90% 29.97 in 10.0 mi NE 3.5 mph - N/A   Overcast
7:48 AM 64.4 °F - 60.8 °F 88% 30.11 in 10.0 mi SE 3.5 mph - N/A   Overcast
7:53 AM 64.9 °F - 62.1 °F 90% 29.99 in 10.0 mi SSE 3.5 mph - N/A   Overcast
8:14 AM 66.2 °F - 62.6 °F 88% 30.12 in 10.0 mi Calm Calm - N/A   Overcast
8:41 AM 66.2 °F - 60.8 °F 83% 30.12 in 10.0 mi SSW 6.9 mph - N/A   Overcast
8:53 AM 66.9 °F - 61.0 °F 81% 29.99 in 10.0 mi South 6.9 mph - N/A   Overcast
9:30 AM 69.8 °F - 60.8 °F 73% 30.11 in 10.0 mi SSW 4.6 mph - N/A   Scattered Clouds
9:45 AM 69.8 °F - 60.8 °F 73% 30.11 in 10.0 mi WSW 5.8 mph - N/A   Mostly Cloudy
9:53 AM 71.1 °F - 61.0 °F 70% 29.99 in 10.0 mi South 6.9 mph - N/A   Mostly Cloudy
10:53 AM 73.0 °F - 59.0 °F 61% 29.97 in 10.0 mi SSE 6.9 mph - N/A   Overcast
11:13 AM 73.4 °F - 60.8 °F 65% 30.10 in 10.0 mi Variable 5.8 mph - N/A   Overcast
11:53 AM 77.0 °F - 59.0 °F 54% 29.96 in 10.0 mi SSW 5.8 mph - N/A   Clear
12:53 PM 79.0 °F - 59.0 °F 50% 29.94 in 10.0 mi ESE 6.9 mph - N/A   Clear
1:53 PM 82.0 °F 82.0 °F 57.9 °F 44% 29.91 in 10.0 mi Variable 3.5 mph - N/A   Clear
2:53 PM 84.9 °F 83.9 °F 57.0 °F 38% 29.89 in 10.0 mi NE 4.6 mph - N/A   Clear
3:53 PM 84.9 °F 84.2 °F 57.9 °F 40% 29.89 in 10.0 mi NNE 6.9 mph - N/A   Clear
4:53 PM 86.0 °F 84.7 °F 55.9 °F 36% 29.86 in 10.0 mi ENE 5.8 mph - N/A   Clear
5:53 PM 82.0 °F 82.4 °F 60.1 °F 47% 29.88 in 10.0 mi NNE 16.1 mph - N/A   Clear
6:53 PM 78.1 °F - 62.1 °F 58% 29.88 in 10.0 mi NNE 15.0 mph 21.9 mph N/A   Clear
7:53 PM 75.0 °F - 62.1 °F 64% 29.92 in 10.0 mi NE 12.7 mph - N/A   Clear
8:53 PM 73.0 °F - 62.1 °F 68% 29.93 in 10.0 mi NNE 12.7 mph - N/A   Clear
9:53 PM 71.1 °F - 62.1 °F 73% 29.95 in 10.0 mi NNE 9.2 mph - N/A   Partly Cloudy
10:17 PM 69.8 °F - 62.6 °F 78% 30.09 in 10.0 mi North 9.2 mph - 0.01 in Rain , Thunderstorm Light Rain
10:32 PM 69.8 °F - 62.6 °F 78% 30.09 in 10.0 mi NNE 8.1 mph - 0.01 in   Partly Cloudy
10:53 PM 66.9 °F - 62.1 °F 84% 29.96 in 10.0 mi NNE 6.9 mph - 0.01 in   Clear
11:53 PM 66.9 °F - 63.0 °F 87% 29.96 in 10.0 mi Calm Calm - N/A   Mostly Cloudy